Theta_e
322 323 323 323 323 323 323 323 323 323 324 324 323 322 321 320 319 318 316 315 315 314 313 313 316 316 325 332 328 328 320 318 316 317 325 328 329 332 337 342 352 356 358 352 351 351 354
323 323 322 322 322 322 322 323 323 322 323 323 324 323 323 321 320 319 318 316 315 315 314 314 315 317 327 333 330 325 316 315 319 321 323 324 329 332 333 339 350 349 353 353 352 353 352
322 322 321 321 321 321 322 322 323 324 323 323 323 324 323 323 322 320 319 316 314 315 314 314 315 322 330 332 328 322 319 319 320 323 321 324 326 329 330 334 351 351 352 349 352 352 352
321 321 320 319 320 320 322 323 323 323 323 323 323 323 324 323 322 321 320 315 314 315 315 315 315 327 331 331 330 324 320 322 323 324 324 324 325 331 332 338 349 357 353 356 355 355 351
319 320 318 317 315 318 319 320 319 320 321 321 322 323 323 323 323 322 320 314 316 320 319 315 320 327 333 329 326 326 326 323 322 323 323 325 326 327 328 329 356 353 355 351 357 349 353
318 318 319 317 314 314 315 317 317 317 318 317 319 321 321 322 322 322 321 315 321 320 321 325 325 329 332 333 330 325 325 324 323 322 323 323 324 327 327 326 338 359 354 350 356 358 356
312 311 313 313 311 312 314 314 316 317 318 317 318 319 319 320 321 321 320 321 329 328 329 330 330 330 332 332 326 325 322 322 322 323 320 322 322 328 328 328 345 348 347 350 348 348 353
307 307 308 309 309 310 312 314 316 318 318 317 317 319 319 318 319 320 318 320 326 326 325 331 331 330 330 325 323 323 322 320 320 321 320 320 323 327 329 338 340 344 347 349 349 350 355
305 305 304 307 308 310 312 314 316 317 317 317 316 318 320 319 319 322 318 320 323 323 324 326 326 332 331 324 323 323 319 320 321 322 321 320 323 328 327 329 345 344 346 349 350 353 355
304 304 308 310 311 311 312 313 314 314 315 317 315 317 319 319 322 322 325 326 325 324 325 328 327 328 331 327 325 325 322 321 323 321 320 321 324 326 325 325 333 331 341 346 344 350 354
304 304 307 308 310 311 312 313 312 312 314 315 313 316 318 318 320 323 325 327 324 323 332 332 329 329 326 326 327 326 324 323 323 324 323 322 323 324 323 324 325 326 328 336 338 337 334
304 304 306 308 309 310 310 312 311 311 314 311 312 315 317 319 321 322 325 326 325 326 333 332 329 327 326 326 327 326 325 324 324 324 322 321 322 322 322 323 323 324 323 329 336 334 333
305 305 307 308 310 310 310 311 312 311 312 309 312 313 316 315 322 323 325 325 323 327 329 332 330 328 327 328 328 326 326 323 322 324 322 323 322 321 324 321 321 322 319 323 328 332 346
305 305 306 308 310 311 312 312 312 312 312 309 313 315 319 318 320 324 323 326 326 327 325 326 330 329 328 328 328 328 325 323 323 323 322 324 325 321 323 321 320 319 316 319 330 349 347
304 304 305 308 310 311 312 313 313 315 312 312 316 319 323 326 324 323 327 328 327 328 328 329 329 331 330 328 328 328 326 325 324 323 322 324 325 326 323 324 322 321 319 318 321 345 348
305 304 305 307 308 310 312 313 314 313 312 315 318 321 327 326 324 325 329 328 327 326 327 328 328 329 330 329 328 327 328 328 328 327 323 325 326 324 325 324 323 322 322 321 320 339 350
306 306 306 306 307 310 312 313 313 313 313 316 319 329 328 326 325 326 329 329 328 327 328 329 328 329 328 329 329 329 329 330 329 329 326 325 324 325 331 324 322 321 323 327 326 330 340
307 307 305 306 308 310 312 313 313 313 313 314 322 333 327 326 327 327 328 328 325 328 328 328 328 328 328 328 328 329 332 332 331 329 328 325 323 326 331 331 325 324 323 326 330 331 332
308 308 306 307 309 309 311 312 314 313 312 313 322 327 328 326 328 328 328 329 328 328 327 328 328 328 328 328 328 328 329 330 333 331 331 327 323 324 327 331 330 325 324 326 327 325 333
307 308 306 307 309 309 310 312 314 312 312 314 322 333 331 329 328 329 330 331 329 330 330 326 326 326 326 327 327 328 328 329 330 330 332 327 326 328 327 333 336 338 336 335 336 330 336
307 307 307 308 308 309 309 312 313 312 312 315 326 331 326 331 329 328 328 330 333 332 330 330 331 327 327 327 328 328 328 326 329 333 333 328 330 331 329 336 337 335 333 333 334 336 334
307 307 306 306 308 308 308 311 313 312 313 320 326 325 323 324 326 326 325 328 328 327 327 327 330 331 330 330 329 328 328 328 333 332 333 328 329 333 332 331 334 335 335 335 337 337 335
306 306 307 306 309 308 308 310 313 313 314 318 318 320 322 323 324 324 326 326 327 327 329 328 329 330 331 329 327 328 328 327 328 330 331 334 332 335 333 331 331 339 337 337 337 337 337
305 306 306 306 308 307 308 311 313 313 314 315 316 319 323 325 323 324 325 325 326 327 328 326 327 328 327 325 325 326 327 328 328 328 328 331 339 340 340 339 340 333 334 336 336 337 335
305 306 304 304 306 307 306 310 313 313 313 312 316 318 322 323 322 322 323 324 325 326 327 326 325 324 324 325 326 328 327 329 331 329 328 328 335 337 339 340 338 335 336 336 339 338 335
304 303 303 304 303 304 306 307 311 312 312 312 314 316 318 321 323 320 323 324 325 325 326 326 324 324 325 325 327 331 330 331 332 329 327 327 328 333 336 339 341 336 336 336 334 339 335
302 303 303 303 304 303 305 306 307 311 311 310 314 315 317 320 318 319 322 322 321 323 324 324 323 324 324 328 327 327 327 328 329 329 329 330 333 332 332 336 335 337 335 335 338 336 336
302 302 302 305 304 303 305 306 306 307 310 311 311 314 316 318 317 316 318 318 319 321 325 324 324 327 329 332 331 329 330 327 327 327 330 331 335 336 332 332 334 334 335 334 334 334 334
302 301 301 304 304 304 304 305 306 306 308 310 312 311 312 316 316 315 314 314 314 315 319 320 323 323 326 328 330 329 331 334 335 338 334 341 336 341 340 340 333 334 333 335 332 333 333
Wind_Speed
23 23 23 23 23 23 24 23 22 22 21 21 21 21 21 22 22 22 18 14 12 10 9 8 6 4 1 4 8 6 10 14 11 10 10 10 13 13 9 3 10 8 14 10 9 7 14
24 24 23 23 23 23 23 23 23 23 22 22 22 22 23 24 25 26 21 13 11 9 8 8 6 3 1 5 9 6 10 12 10 13 12 17 10 14 7 5 10 10 19 11 8 10 1
24 23 24 24 24 24 23 23 24 24 23 23 23 24 24 25 26 27 23 14 9 8 8 8 4 2 5 11 7 5 12 11 13 17 11 21 21 7 9 6 14 10 8 8 6 3 2
22 22 22 23 24 24 23 23 24 25 25 24 24 25 25 26 26 27 25 14 9 9 10 8 2 1 7 14 14 13 13 15 14 15 19 20 20 5 4 2 7 1 7 4 6 9 1
21 21 21 23 25 24 24 24 26 26 25 25 24 25 25 26 26 26 25 13 9 8 6 4 1 4 8 5 9 13 13 15 17 17 15 14 6 5 9 7 4 6 3 2 5 1 9
21 22 22 23 24 25 25 25 26 26 26 26 26 27 27 26 26 28 23 11 8 2 2 3 8 6 7 11 11 13 15 16 8 6 6 8 3 4 6 3 6 6 3 5 5 11 11
23 23 22 23 24 24 25 26 27 28 27 27 28 28 28 27 26 28 21 5 0 1 8 10 9 7 10 11 12 8 11 12 9 5 7 8 4 8 15 10 10 8 4 4 5 8 3
22 22 23 23 24 25 25 26 27 28 27 28 30 30 29 29 27 26 10 4 10 16 7 19 20 21 28 14 6 9 15 6 7 7 8 7 9 15 17 9 9 12 10 12 5 3 5
22 23 24 24 25 25 26 27 28 29 27 28 31 30 30 30 26 14 9 15 17 21 6 13 18 20 14 10 8 11 12 10 9 9 9 10 13 17 16 7 11 7 11 10 7 10 10
23 24 24 25 25 27 28 28 29 31 31 30 32 30 29 33 10 15 8 16 16 17 4 7 8 11 21 7 9 13 18 9 7 11 13 10 18 15 11 10 9 7 14 11 14 14 8
24 24 25 26 27 28 29 29 30 32 32 32 32 29 27 25 19 7 14 20 14 9 4 6 10 12 8 9 4 11 25 7 12 9 5 10 11 8 8 6 6 8 7 6 5 5 0
24 24 25 27 28 29 30 30 32 35 33 34 32 29 30 11 13 17 18 14 15 1 7 5 10 11 9 9 16 8 9 6 8 10 11 9 11 5 10 9 7 6 8 8 5 5 3
23 24 25 27 28 31 31 31 33 36 37 37 36 31 30 16 7 8 12 7 1 4 7 11 13 14 13 10 11 10 10 7 5 4 8 12 12 10 5 6 6 7 4 4 5 3 2
22 23 24 26 28 30 32 32 35 37 40 40 39 31 16 19 13 9 7 2 5 9 11 7 8 16 13 12 14 12 9 7 10 10 9 7 8 12 9 9 9 8 9 5 6 3 1
23 24 24 25 27 30 32 33 35 37 42 41 34 17 8 7 9 8 2 4 5 5 8 16 19 10 9 9 10 11 11 12 12 13 9 3 11 20 11 6 8 9 6 11 3 3 4
23 23 23 25 28 30 32 33 36 39 44 29 27 8 10 16 13 10 3 6 7 11 18 16 16 6 10 11 13 11 11 15 16 17 14 8 5 5 11 8 8 7 7 2 2 3 4
23 22 23 24 27 28 30 33 36 40 45 26 6 3 10 18 14 1 4 5 11 17 16 16 15 13 13 15 14 11 17 15 16 13 13 11 5 10 2 5 8 5 5 4 3 4 5
23 22 22 23 24 26 28 31 34 37 44 28 8 3 14 14 3 4 8 7 8 19 18 15 12 8 8 15 16 15 14 6 9 9 7 9 4 4 11 7 11 9 7 7 4 8 3
21 22 22 22 24 24 26 29 31 32 36 19 6 4 10 15 3 7 11 15 18 17 14 10 9 9 8 10 9 10 14 19 8 4 1 4 4 3 7 3 5 5 9 4 4 1 3
20 21 20 21 24 22 24 27 29 32 34 16 4 4 2 3 7 8 11 11 15 15 14 5 8 9 11 12 8 9 13 15 13 4 8 4 3 6 6 6 3 1 5 6 4 3 2
18 19 19 20 23 20 23 25 29 32 34 3 3 3 10 5 8 15 15 14 13 13 15 14 9 6 9 8 10 10 12 12 14 7 6 7 3 4 7 6 4 4 8 13 7 15 1
17 18 18 21 22 20 22 24 27 31 28 1 5 5 9 11 11 12 12 11 14 14 13 15 11 12 6 7 8 10 11 7 5 9 9 2 4 4 6 7 8 6 1 8 11 12 16
16 17 19 19 21 20 20 22 24 27 23 7 14 16 5 7 10 11 10 13 19 20 7 9 12 10 10 13 16 13 9 8 7 5 7 5 1 0 6 7 4 1 11 11 7 6 2
16 15 18 17 18 19 18 18 21 21 20 9 15 14 4 6 9 11 19 19 17 18 7 10 10 8 10 17 13 14 9 11 9 10 6 5 5 3 3 5 9 5 9 12 10 10 10
15 15 16 17 18 18 17 16 18 19 18 17 13 7 4 6 9 15 16 17 17 14 13 9 11 11 8 11 5 6 7 7 6 9 9 6 2 3 2 4 4 3 5 3 5 7 15
14 15 15 16 17 17 16 16 15 16 17 17 13 10 4 5 5 16 17 14 11 11 9 9 17 13 11 4 4 4 4 7 4 5 4 9 6 3 2 3 5 6 6 12 7 3 11
13 14 14 15 16 16 16 15 14 14 16 16 9 12 5 4 10 11 11 11 12 12 8 9 12 8 11 2 5 6 7 6 9 10 8 7 5 11 10 7 7 3 10 6 9 7 3
13 14 14 15 16 15 15 15 15 14 14 15 14 11 7 3 12 12 12 13 13 9 6 10 7 5 4 4 3 3 4 6 8 9 7 6 5 7 7 9 9 7 5 8 7 5 7
12 13 14 14 14 14 14 15 15 14 11 12 8 16 17 6 9 36 38 35 31 28 11 5 9 11 3 3 4 4 3 4 6 3 7 3 2 2 5 3 10 14 7 1 13 8 7
Wind_Direction
14 10 10 9 8 9 7 8 8 6 5 5 4 2 1 359 354 349 336 322 314 306 301 303 313 337 45 226 252 256 189 198 209 200 221 251 271 277 292 75 96 110 103 113 111 108 126
6 4 4 3 2 1 0 360 0 359 359 358 358 357 356 355 353 350 340 322 309 297 289 290 301 324 259 251 178 204 193 189 192 194 226 250 263 280 299 22 56 91 76 114 122 116 158
1 3 2 1 0 359 357 355 355 354 354 353 353 352 352 349 348 348 341 321 304 287 279 281 290 1 260 248 192 164 171 204 203 212 229 251 262 303 332 350 64 36 82 69 29 130 119
359 358 358 356 355 356 356 354 352 351 352 351 348 346 345 344 344 343 340 319 301 287 272 269 251 156 256 288 229 170 187 212 222 245 250 280 302 310 300 208 50 183 56 44 42 309 120
357 354 354 354 353 354 353 353 352 350 348 347 344 343 341 339 339 337 337 315 307 303 283 251 223 202 265 205 200 235 198 218 215 233 255 274 323 285 299 268 76 3 198 254 106 281 282
354 351 351 352 353 353 355 353 351 348 346 345 342 341 338 335 335 333 331 311 299 297 360 316 263 299 254 244 208 206 207 225 219 220 256 248 272 235 263 249 216 184 197 212 156 205 231
352 353 354 353 353 354 353 352 351 348 346 345 343 340 335 330 331 329 327 338 250 189 235 208 194 231 270 208 132 175 186 214 232 193 233 250 216 244 252 245 145 158 115 132 279 225 182
355 355 355 353 353 355 354 352 350 348 345 344 342 338 333 327 327 319 303 249 263 315 292 223 243 249 273 146 163 203 186 176 216 208 226 271 228 246 264 199 147 155 157 194 245 256 187
355 354 352 352 353 352 351 350 349 346 344 342 341 337 333 326 324 308 243 245 277 299 287 276 241 221 249 159 214 181 161 222 180 218 226 218 246 235 252 264 145 193 187 196 181 208 219
356 355 357 356 355 353 350 348 347 345 342 340 340 337 334 332 320 330 277 289 299 280 296 262 179 227 229 171 228 189 180 194 229 209 225 223 248 253 253 251 179 231 220 210 281 146 205
355 355 357 357 355 353 350 349 347 345 342 338 336 334 327 333 298 299 294 343 337 318 296 165 151 180 172 169 237 200 175 200 252 261 207 250 254 260 286 274 284 251 308 223 237 292 34
356 356 356 355 354 353 350 347 345 344 340 336 332 328 322 343 294 279 298 307 301 277 248 184 144 157 162 199 242 148 159 180 242 262 283 241 274 269 224 262 228 270 294 290 206 230 308
354 355 354 353 353 353 352 349 345 343 339 336 328 320 309 283 237 306 347 293 209 235 308 145 168 160 185 189 236 168 177 178 211 244 260 272 240 259 206 246 271 203 302 312 320 346 224
351 351 352 352 352 353 352 349 347 345 339 337 326 323 297 263 272 314 283 311 243 253 241 293 177 174 184 200 210 214 169 199 212 236 275 264 274 221 220 200 198 208 188 174 225 157 191
349 349 348 350 349 351 351 351 350 346 341 341 328 332 266 256 225 219 259 223 219 235 282 350 337 202 193 195 209 212 185 196 213 199 206 259 283 277 182 185 189 262 200 216 187 23 89
347 348 347 348 348 350 352 352 351 347 343 348 330 298 258 232 153 198 226 250 261 281 320 324 311 316 331 204 202 222 207 209 218 215 198 236 288 207 192 173 225 191 230 288 285 145 198
346 346 346 348 348 349 352 353 353 351 347 352 314 278 112 155 173 174 225 243 266 265 268 289 299 314 311 317 317 245 226 228 212 226 186 219 172 287 353 193 192 269 280 276 167 171 152
345 346 346 349 349 349 351 353 355 356 354 2 321 278 159 154 170 213 228 243 249 274 283 285 297 236 295 304 307 314 325 228 246 219 201 190 162 233 230 255 193 204 233 208 149 286 246
345 347 349 352 351 348 350 353 355 357 360 343 312 271 233 180 243 242 263 274 253 254 267 286 314 312 310 273 296 307 311 314 317 56 353 202 212 250 315 294 301 209 244 245 231 180 244
343 346 350 350 345 346 348 350 352 351 352 347 288 297 261 199 231 262 287 282 294 307 310 229 271 312 311 309 293 285 298 300 311 231 145 99 224 176 201 211 169 333 339 339 21 315 170
343 344 348 348 344 350 350 351 351 349 350 327 237 334 17 315 336 330 318 318 321 323 323 324 299 215 271 290 307 306 313 311 303 315 212 139 242 291 288 137 166 229 275 277 343 304 255
341 343 349 348 348 353 353 352 353 353 359 164 334 1 347 299 302 320 305 290 281 283 280 290 292 315 289 248 255 278 302 313 301 348 332 290 247 265 281 285 210 195 285 310 308 313 350
340 346 346 347 349 353 352 355 358 0 14 351 348 345 316 298 304 304 293 300 312 314 335 320 347 340 329 20 346 324 317 311 312 325 317 322 18 335 250 268 282 357 189 204 229 298 190
340 341 341 346 349 351 353 357 359 360 7 342 312 327 297 291 307 299 312 310 314 330 333 322 329 329 315 328 333 330 330 319 319 303 294 312 336 137 206 322 269 235 174 169 207 283 323
335 336 339 344 345 348 350 353 358 352 355 348 319 340 321 303 314 305 334 332 326 322 323 318 304 296 288 290 310 311 315 299 261 255 289 306 343 331 196 238 277 3 179 122 132 255 269
333 333 338 341 342 344 346 345 349 352 352 350 327 340 318 304 208 352 322 313 320 338 324 321 358 328 315 244 266 230 245 294 275 297 262 271 261 181 279 181 242 191 162 137 137 217 295
332 334 336 338 340 341 341 341 336 340 346 343 290 351 310 277 271 323 317 319 318 319 304 315 351 324 320 309 249 245 251 261 257 261 275 279 261 243 257 244 245 174 140 148 151 224 309
327 330 333 336 338 341 339 340 338 330 339 345 305 334 346 273 292 274 314 320 319 310 301 338 331 5 344 357 319 300 272 257 268 264 254 251 268 242 230 247 261 163 142 158 186 179 78
322 327 329 331 337 340 341 338 336 333 324 336 292 323 327 260 283 296 290 281 261 257 272 273 297 307 287 352 13 340 338 308 331 291 9 89 14 267 27 331 330 333 215 153 152 169 144